GW4294 Weather Reports


time (UTC)temp
F
wind
direction
speed
knots
gust
knots
rain 1hr
in
rain 24hr
in
rain mn
in
humidity
%
barometer
mb
20260510180103 51 350 2.6 10.4 0.00 0.05 0.00 44 1016.7
20260510174552 50 308 3.5 7.8 0.00 0.05 0.00 46 1016.4
20260510173056 50 5 1.7 10.4 0.00 0.05 0.00 47 1016.3
20260510171558 51 302 1.7 5.2 0.00 0.05 0.00 50 1016.2
20260510170054 50 259 3.5 8.7 0.00 0.05 0.00 50 1016.1
20260510164601 49 251 4.3 8.7 0.00 0.05 0.00 48 1016.0
20260510163053 49 240 4.3 12.2 0.00 0.05 0.00 46 1015.9
20260510161601 49 295 1.7 8.7 0.00 0.05 0.00 47 1015.7
20260510160056 49 238 2.6 8.7 0.00 0.05 0.00 52 1015.4
20260510154600 48 292 3.5 8.7 0.00 0.05 0.00 54 1015.4
20260510153055 47 210 3.5 12.2 0.00 0.05 0.00 53 1015.3
20260510151556 47 295 3.5 10.4 0.00 0.05 0.00 54 1015.3
20260510150123 47 283 2.6 7.8 0.00 0.05 0.00 57 1014.9
20260510144554 47 304 1.7 6.1 0.00 0.05 0.00 56 1014.6
20260510143054 46 339 3.5 10.4 0.00 0.05 0.00 56 1014.5
20260510141555 47 306 2.6 8.7 0.00 0.05 0.00 56 1014.3
20260510140053 46 280 4.3 10.4 0.00 0.05 0.00 55 1014.0
20260510134557 46 223 3.5 7.8 0.00 0.05 0.00 54 1013.8
20260510133058 45 316 2.6 8.7 0.00 0.05 0.00 54 1013.6
20260510131553 44 297 3.5 7.8 0.00 0.05 0.00 57 1013.4
20260510130056 44 293 2.6 7.0 0.00 0.05 0.00 59 1013.3
20260510124602 43 321 1.7 7.8 0.00 0.05 0.00 62 1013.2
20260510123100 42 252 1.7 8.7 0.00 0.05 0.00 63 1013.3
20260510121552 42 287 2.6 7.8 0.00 0.05 0.00 66 1013.1
20260510120054 41 311 1.7 5.2 0.00 0.05 0.00 66 1012.9
20260510114559 40 0 2.6 5.2 0.00 0.05 0.00 68 1012.6
20260510113057 39 307 0.9 4.3 0.00 0.05 0.00 71 1012.4
20260510111604 38 288 0.9 3.5 0.00 0.05 0.00 73 1012.0
20260510110057 37 239 0.9 2.6 0.00 0.05 0.00 74 1011.9
20260510104608 37 268 0.0 1.7 0.00 0.05 0.00 75 1011.7
20260510103106 36 0 0.0 1.7 0.00 0.05 0.00 75 1011.4
20260510101601 36 241 0.9 2.6 0.00 0.05 0.00 76 1011.2
20260510094614 36 277 0.0 2.6 0.00 0.05 0.00 76 1010.4
20260510093121 37 299 0.0 2.6 0.00 0.05 0.00 75 1010.3
20260510091557 37 266 0.9 3.5 0.00 0.05 0.00 73 1010.1
20260510090107 37 297 0.9 4.3 0.00 0.05 0.00 73 1009.8
20260510084600 37 219 0.0 3.5 0.00 0.05 0.00 75 1009.6
20260510083105 37 288 0.9 3.5 0.00 0.05 0.00 77 1009.4
20260510081555 37 302 0.9 2.6 0.00 0.05 0.00 78 1009.4
20260510080056 37 0 0.0 1.7 0.00 0.05 0.00 78 1009.4
20260510074602 37 0 0.0 0.9 0.00 0.05 0.00 78 1009.1
20260510073057 37 0 0.0 1.7 0.00 0.05 0.00 79 1009.0
20260510071553 38 0 0.0 0.9 0.00 0.05 0.00 78 1008.8
20260510070053 38 0 0.0 1.7 0.00 0.05 0.00 77 1008.7
20260510064559 38 0 0.0 1.7 0.00 0.05 0.00 76 1008.6
20260510063053 39 0 0.0 1.7 0.00 0.05 0.00 76 1008.8
20260510061600 39 277 0.0 2.6 0.00 0.05 0.00 74 1008.8
20260510060052 39 0 0.0 1.7 0.00 0.05 0.00 73 1008.7
20260510054551 40 308 0.9 2.6 0.00 0.05 0.00 72 1008.7
20260510053052 40 0 0.0 0.9 0.00 0.05 0.00 71 1008.5
20260510051603 40 339 0.0 5.2 0.00 0.05 0.00 70 1008.3
20260510050054 40 294 0.9 5.2 0.00 0.05 0.00 71 1008.1
20260510044601 41 297 0.0 5.2 0.00 0.05 0.00 70 1007.9
20260510043051 41 0 1.7 4.3 0.00 0.05 0.00 70 1007.8
20260510041551 42 9 0.9 6.1 0.00 0.05 0.00 69 1007.7
20260510040056 42 277 0.9 3.5 0.00 0.05 0.00 69 1007.4
20260510034553 42 304 0.9 6.1 0.00 0.05 0.05 71 1007.2
20260510033059 43 270 0.0 4.3 0.00 0.05 0.05 71 1007.0
20260510031554 43 302 0.9 3.5 0.00 0.05 0.05 68 1006.8
20260510024556 45 66 1.7 6.1 0.00 0.05 0.05 62 1006.5
20260510023059 46 294 1.7 4.3 0.00 0.05 0.05 60 1006.3
20260510021600 46 0 0.9 4.3 0.00 0.05 0.05 56 1005.9
20260510020053 47 233 1.7 4.3 0.00 0.05 0.05 55 1005.7
20260510014553 47 295 0.0 5.2 0.00 0.05 0.05 58 1005.4
20260510013051 47 298 0.9 6.1 0.00 0.05 0.05 59 1005.2
20260510011552 48 254 0.9 4.3 0.00 0.05 0.05 60 1005.0
20260510010055 48 345 0.0 4.3 0.00 0.05 0.05 62 1004.5
20260510004552 49 249 0.0 2.6 0.00 0.05 0.05 61 1004.2
20260510003051 49 282 0.0 4.3 0.00 0.05 0.05 61 1004.0
20260510001550 50 0 1.7 6.1 0.00 0.05 0.05 60 1003.6
20260510000053 51 256 0.9 4.3 0.00 0.05 0.05 61 1003.2
20260509234554 52 275 1.7 6.1 0.00 0.05 0.05 60 1002.9
20260509233051 53 327 0.9 9.6 0.00 0.05 0.05 59 1002.4
20260509231552 56 287 4.3 14.8 0.00 0.05 0.05 58 1002.1
20260509230057 58 259 2.6 8.7 0.00 0.05 0.05 56 1001.3
20260509224555 58 274 2.6 12.2 0.00 0.05 0.05 56 1001.0
20260509223052 58 259 4.3 10.4 0.00 0.05 0.05 56 1000.9
20260509221553 58 234 3.5 9.6 0.00 0.05 0.05 57 1000.8
20260509220103 60 297 2.6 8.7 0.00 0.05 0.05 60 1000.7
20260509214558 60 267 2.6 11.3 0.00 0.05 0.05 61 1000.5
20260509213122 60 295 5.2 9.6 0.00 0.05 0.05 60 1000.5
20260509211554 60 219 3.5 13.0 0.00 0.05 0.05 64 1000.4
20260509210104 59 238 3.5 11.3 0.00 0.05 0.05 69 1000.4
20260509204552 58 255 2.6 5.2 0.00 0.05 0.05 76 1000.0
20260509203054 56 292 1.7 7.8 0.05 0.05 0.05 80 1000.0
20260509201556 54 239 2.6 9.6 0.05 0.05 0.05 84 999.6
20260509200105 52 276 2.6 7.0 0.05 0.05 0.05 86 999.7
20260509194610 53 155 2.6 16.5 0.04 0.04 0.04 80 999.9
20260509193055 62 227 1.7 5.2 0.00 0.00 0.00 59 998.5
20260509191555 62 147 2.6 7.8 0.00 0.00 0.00 53 998.3
20260509190057 63 117 3.5 7.8 0.00 0.00 0.00 50 998.7
20260509184557 64 196 3.5 8.7 0.00 0.00 0.00 47 998.9
20260509183104 66 249 3.5 8.7 0.00 0.00 0.00 46 998.7
20260509181559 64 143 3.5 8.7 0.00 0.00 0.00 48 998.8